Flag for China Weather past 2 weeks in Hangzhou, China

Now
59 °F

Fog.


Feels Like: 60 °F
Forecast: 53 / 69 °F
Wind: 3 mph from East

Location: Hangzhou Airport


UV Index: 0 (Low)

Visibility: 3 mi


Pressure: 30.04 "Hg

Humidity: 77%

Dew point: 52 °F

Location of HangzhouLocation

Historic Weather in Hangzhou

°F

Hangzhou temperature yesterday

Maximum temperature yesterday: 64 °F (at 11:30 AM)
Minimum temperature yesterday: 57 °F (at 12:00 AM)
Average temperature yesterday: 60 °F

Past Weeks' High & Low Weather Summary

 TemperatureHumidityPressure
High79 °F (Apr 10, 1:00 PM)94% (Apr 9, 4:30 AM)30.36 "Hg (Apr 9, 4:30 AM)
Low46 °F (Apr 6, 2:00 AM)25% (Apr 15, 1:30 PM)29.74 "Hg (Apr 12, 4:00 AM)
Average62 °F70%30.00 "Hg
* Reported Midnight between Apr 5 and Apr 6 — Apr 21 12:30 AM, Hangzhou, Weather by CustomWeather, © 2014

Note: Actual official high and low records may vary slightly from our data, if they occured in-between our weather recording intervals... More about our weather records

Advertising

Historic Weather Conditions — Data for Previous 24 hours

 ConditionsComfort  
Time TempWeatherWind HumidityBarometerVisibility
12:30 AM
Apr 21
59 °FFog.1 mph77%30.04 "Hg3 mi
12:00 AM59 °FPassing clouds.3 mph77%30.04 "Hg4 mi
11:30 PM
Apr 20
59 °FPassing clouds.6 mph77%30.04 "Hg4 mi
11:00 PM59 °FFog.6 mph77%30.04 "Hg3 mi
10:30 PM59 °FFog.3 mph77%30.04 "Hg3 mi
10:00 PM59 °FPassing clouds.1 mph77%30.04 "Hg4 mi
9:30 PM59 °FPassing clouds.3 mph82%30.04 "Hg4 mi
9:00 PM59 °FPassing clouds.3 mph82%30.04 "Hg4 mi
8:30 PM59 °FPassing clouds.3 mph82%30.04 "Hg4 mi
8:00 PM59 °FPassing clouds.3 mph82%30.01 "Hg4 mi
7:30 PM59 °FFog.3 mph82%30.04 "Hg3 mi
7:00 PM61 °FFog.3 mph77%30.04 "Hg3 mi
6:30 PM61 °FFog.3 mph77%30.01 "Hg3 mi
6:00 PM61 °FFog.6 mph77%30.01 "Hg3 mi
5:30 PM61 °FFog.6 mph77%30.01 "Hg3 mi
5:00 PM61 °FScattered clouds.3 mph77%30.01 "Hg3 mi
4:30 PM61 °FPartly sunny.3 mph72%30.01 "Hg3 mi
4:00 PM61 °FFog.3 mph77%30.01 "Hg3 mi
3:30 PM61 °FPartly sunny.6 mph77%30.01 "Hg3 mi
3:00 PM63 °FPartly sunny.6 mph73%30.01 "Hg2 mi
2:30 PM63 °FPartly sunny.6 mph73%30.01 "Hg3 mi
2:00 PM63 °FPartly sunny.8 mph73%30.04 "Hg3 mi
1:30 PM63 °FPartly sunny.8 mph73%30.04 "Hg3 mi
1:00 PM63 °FPartly sunny.6 mph68%30.04 "Hg4 mi
12:30 PM64 °FPartly sunny.6 mph64%30.04 "Hg3 mi
12:00 PM64 °FPartly sunny.6 mph64%30.04 "Hg3 mi
11:30 AM64 °FPartly sunny.3 mph68%30.07 "Hg3 mi
11:00 AM63 °FPartly sunny.3 mph73%30.07 "Hg3 mi
10:30 AM61 °FBroken clouds.3 mph77%30.07 "Hg3 mi
10:00 AM63 °FBroken clouds.3 mph73%30.07 "Hg3 mi
9:30 AM61 °FFog.3 mph77%30.07 "Hg3 mi
9:00 AM61 °FFog.6 mph77%30.07 "Hg2 mi
8:30 AM59 °FFog.6 mph82%30.07 "Hg2 mi
8:00 AM57 °FFog.8 mph88%30.07 "Hg1 mi
7:30 AM59 °FFog.10 mph82%30.07 "Hg1 mi
7:00 AM59 °FFog.6 mph82%30.07 "Hg1 mi
6:30 AM57 °FFog.6 mph88%30.07 "Hg1 mi
6:00 AM57 °FFog.6 mph88%30.04 "Hg1 mi
5:30 AM57 °FFog.6 mph88%30.04 "Hg1 mi
5:00 AM57 °FFog.6 mph88%30.04 "Hg2 mi
4:30 AM57 °FFog.6 mph88%30.01 "Hg2 mi
4:00 AM57 °FFog.3 mph88%30.01 "Hg2 mi
3:30 AM57 °FFog.3 mph88%30.01 "Hg2 mi
3:00 AM57 °FFog.6 mph88%30.01 "Hg2 mi
2:30 AM57 °FLight rain. Fog.6 mph88%30.01 "Hg2 mi
2:00 AM57 °FFog.6 mph88%30.01 "Hg2 mi
1:30 AM57 °FSprinkles. Fog.3 mph88%30.01 "Hg2 mi
1:00 AM57 °FSprinkles. Fog.3 mph94%30.01 "Hg2 mi
Weather by CustomWeather, © 2014

See weather overview